Other Public Products
Issued by NWS Grand Forks, ND

Home | Current Version | Previous Version | Text Only | Print | Product List | Glossary Off
Versions: 1 2 3 4 5 6 7 8 9 10 11 12 13 14 15 16 17 18 19 20 21 22 23 24 25 26 27 28 29 30 31 32 33 34 35 36 37 38 39 40 41 42 43 44 45 46 47 48 49 50

000
FPUS83 KFGF 141531
OPUFGF
PRAIRIE TO PINES WEATHER ROUNDUP
NATIONAL WEATHER SERVICE EASTERN NORTH DAKOTA/GRAND FORKS ND
1000 AM CDT SUN SEP 14 2014

 **SATELLITE DATA USED TO AUGMENT SKY COVER AT AUTOMATED STATIONS**
 *****  WEATHER ACROSS EASTERN NORTH DAKOTA  *****

CITY           SKY/WX    TMP DP  RH WIND       PRES   REMARKS
GRAND FORKS    CLOUDY    51  44  77 NW14G21   30.08R
GRAND FORKS AF CLOUDY    51  44  79 NW13      30.09R
GRAND CITY NWS   N/A     50 N/A N/A N10         N/A
BUXTON           N/A     51  48  90 NW10        N/A
DEVILS LAKE    CLOUDY    48  36  61 N15       30.11R
FARGO          CLOUDY    50  44  80 W13       30.11R
WAHPETON ARPT  MOSUNNY   50  41  71 NW12      30.14R
$$

 *****  WEATHER ACROSS CENTRAL AND WESTERN NORTH DAKOTA  *****

CITY           SKY/WX    TMP DP  RH WIND       PRES   REMARKS
JAMESTOWN      CLOUDY    46  42  86 NW14      30.13S
BISMARCK       SUNNY     48  39  71 NW3       30.19R
MINOT          SUNNY     46  38  73 W9        30.16R
MINOT AFB      SUNNY     45  40  85 NW13      30.15S
GARRISON         N/A     45  40  82 NW9       30.16S
WILLISTON      SUNNY     41  36  82 CALM      30.20R
DICKINSON      MOSUNNY   45  37  73 NE6       30.17R
HETTINGER      PTSUNNY   44  35  70 VRB3      30.19R
$$

 *****  OTHER OBSERVATIONS NORTHEAST NORTH DAKOTA  *****

CITY           SKY/WX    TMP DP  RH WIND       PRES   REMARKS
WALHALLA         N/A     50  46  87 NW13G20   30.08S
LANGDON        CLOUDY    46  41  81 NW16      30.09R
CAVALIER         N/A    N/A N/A N/A MISG        N/A
GRAFTON        PTSUNNY   50  45  81 NW12      30.08R
CANDO          CLOUDY    48  39  71 NW14G21   30.13R
FORT TOTTEN      N/A     48  43  83 NW7       29.95S
ROLLA          PTSUNNY   46  39  76 N16       30.13S
RUGBY          FAIR      48  39  71 NW8       30.13S
 ***** THE ABOVE OBSERVATIONS ARE NON NWS ARE NOT QUALITY
        CONTROLLED AND MAY MIS-REPORT RAIN FOR SNOW...
$$

 *****  OTHER OBSERVATIONS SOUTHEAST NORTH DAKOTA *****

CITY           SKY/WX    TMP DP  RH WIND       PRES   REMARKS
COOPERSTOWN    NOT AVBL
VALLEY CITY    FAIR      48  45  87 NW16      30.12S
OAKES            N/A     46  43  87 NW12      30.15S
GWINNER        MOSUNNY   50  43  76 W13       30.16R
BUFFALO          N/A     50  42  72 NW14        N/A
WYNDMERE         N/A     50  43  76 W8          N/A
 ***** THE ABOVE OBSERVATIONS ARE NON NWS ARE NOT QUALITY
       CONTROLLED AND MAY MIS-REPORT RAIN FOR SNOW...
$$

  *****  WEATHER ACROSS NORTHERN MINNESOTA  *****

CITY           SKY/WX    TMP DP  RH WIND       PRES   REMARKS
FLAG ISLAND    CLOUDY    48  45  87 W13       29.97R
WARROAD        CLOUDY    48  45  87 W8        30.01R
ROSEAU         PTSUNNY   50  45  81 W10       30.02R
HALLOCK        PTSUNNY   50  46  87 NW15G21   30.05S
THF RVR FALLS  CLOUDY    48  45  87 NW12      30.06R
HALSTAD          N/A     51  45  77 NW9         N/A
FOSSTON        CLOUDY    45  43  93 W7        30.07R
BAUDETTE       PTSUNNY   50  46  86 NW8       29.98R
WASKISH        CLOUDY    48  45  87 W13G18    30.01R
CROOKSTON      CLOUDY    50  46  87 NW12G20   30.08R
$$
  *****  WEATHER ACROSS CENTRAL AND WEST MINNESOTA  *****

CITY           SKY/WX    TMP DP  RH WIND       PRES   REMARKS
BEMIDJI        CLOUDY    48  42  79 W14G21    30.04R
PARK RAPIDS    CLOUDY    48  42  80 W12       30.07R
WADENA         PTSUNNY   48  43  81 SW7       30.09S
DETROIT LAKES  CLOUDY    46  43  87 NW12      30.10R
MOORHEAD       PTSUNNY   52  46  82 NW9       30.11S
FERGUS FALLS   CLOUDY    48  39  71 W9        30.13S
ELBOW LAKE     FAIR      49  42  78 NW7       30.13S
MORRIS MN      SUNNY     54  43  66 NW12      30.13R
STAPLES        CLOUDY    48  39  71 W12       30.10R
WHEATON        SUNNY     52  41  66 W9        30.16R
$$
  *****  WEATHER ELSEWHERE ACROSS MINNESOTA  *****

CITY           SKY/WX    TMP DP  RH WIND       PRES   REMARKS
DULUTH         MOSUNNY   54  41  61 W18G25    30.01S
INTRNTL FALLS  CLOUDY    48  44  86 W10G17    29.95R
ELY            PTSUNNY   50  41  71 W10G20    29.96S
CLOQUET        MOSUNNY   54  39  58 W17G23    30.03R
BRAINERD       MOSUNNY   50  41  71 NW10G17   30.09S
HIBBING        PTSUNNY   51  41  68 W9        30.01R
ALEXANDRIA     SUNNY     49  42  77 NW10      30.12S
SAINT CLOUD    SUNNY     56  41  57 W13       30.11S
MINNEAPOLIS    MOSUNNY   54  44  69 SW9       30.13S
$$

  *****  WEATHER ACROSS SOUTH DAKOTA  *****

CITY           SKY/WX    TMP DP  RH WIND       PRES   REMARKS
SIOUX FALLS    MOSUNNY   53  45  74 CALM      30.19R
BROOKINGS      NOT AVBL
WATERTOWN      PTSUNNY   48  40  73 NW6       30.17R
HURON          MOSUNNY   50  40  68 NW6       30.20S
SISSETON         N/A     52  41  66 NW15      30.13S
ABERDEEN       MOSUNNY   46  41  82 NW8       30.18R
MITCHELL       MOSUNNY   51  42  71 N3        30.20S
PIERRE         MOSUNNY   50  41  71 NE5       30.18F
MOBRIDGE       PTSUNNY   45  40  82 NW3       30.17R
RAPID CITY     CLOUDY    46  37  71 S3        30.18S
$$

  *****  SOME WEATHER IN NEARBY STATES *****

CITY           SKY/WX    TMP DP  RH WIND       PRES   REMARKS
GLASGOW MT     CLOUDY    42  34  73 SE13      30.15R
GREAT FALLS MT SUNNY     42  37  82 SW6       30.10R
CHEYENNE WY    SUNNY     61  39  44 W5        30.14S
SCOTTSBLUFF NE CLOUDY    48  47  96 CALM      30.12R FOG
OMAHA NE       MOSUNNY   58  48  69 S9        30.22S
DES MOINES IA  PTSUNNY   58  47  66 S10       30.25S
DAVENPORT IA   CLOUDY    54  43  66 SW7       30.31R
CHICAGO IL     MOSUNNY   56  43  61 S7        30.31S
EAU CLAIRE WI  PTSUNNY   57  44  62 SW12G21   30.13F
LA CROSSE WI   SUNNY     58  43  57 S17G29    30.19F
$$

  *****  SOME NATIONAL WEATHER *****

CITY           SKY/WX    TMP DP  RH WIND       PRES   REMARKS
LA GUARDIA NY  MOSUNNY   60  46  59 N10       30.27S
RALEIGH NC     PTSUNNY   68  55  63 VRB7      30.28S
ATLANTA GA     CLOUDY    76  70  82 SE7       30.21R
NEW ORLEANS LA CLOUDY    76  69  79 NE9       30.13R
OKLAHOMA CITY  PTSUNNY   62  56  80 S9        30.25S
ALBUQUERQUE NM MOSUNNY   66  51  58 CALM      30.27S
SALT LAKE CITY MOSUNNY   70  38  31 CALM      30.03R
LOS ANGELES CA MOSUNNY   75  66  73 CALM      29.76R
BOISE ID       SUNNY     60  30  32 E3        29.97S
SEATTLE WA     SUNNY     57  50  77 CALM      29.92R
$$

*** WEATHER ACROSS MANITOBA...SASKATCHEWAN AND ONTARIO ***
                ***ONTARIO***

CITY           SKY/WX    TMP DP  RH WIND       PRES   REMARKS
GERALDTON      CLOUDY   N/A N/A N/A SE5         N/A
THUNDER BAY    LGT RAIN  50  48  93 S7        29.95F
SIOUX LOOKOUT  DRIZZLE   45  45 100 N3        29.88  FOG
TORONTO        PTSUNNY   57  43  58 SE6       30.34F
BIG TROUT LK   CLOUDY    41  39  93 NE6       29.99S
PICKLE LAKE    CLOUDY    48  37  66 SW3       29.93F
DRYDEN         MOSUNNY   46  45  93 N9        29.91R
KENORA         PTSUNNY   48  45  87 N9        29.96R
$$
                *** MANITOBA***

CITY           SKY/WX    TMP DP  RH WIND       PRES   REMARKS
BRANDON        PTSUNNY   45  41  87 NW9       30.14R
DAUPHIN        CLOUDY    46  41  81 W8        30.13R
ISLAND LAKE    PTSUNNY   45  41  87 CALM      30.04S
PILOT MOUND      N/A     46  41  81 NW13G18     N/A
THE PAS        PTSUNNY   48  37  66 W8        30.08S
THOMPSON       PTSUNNY   41  41 100 S2        30.03
WINNIPEG       PTSUNNY   48  46  93 NW10      30.05S
LYNN LAKE      CLOUDY    45  39  81 MISG      29.96F
CHURCHILL      PTSUNNY   41  37  87 SW8       29.90F
GILLAM         PTSUNNY   41  37  87 SW7       30.02F
$$
                ***SASKATCHEWAN***

CITY           SKY/WX    TMP DP  RH WIND       PRES   REMARKS
ESTEVAN        MOSUNNY   43  41  93 NW2       30.18S
KINDERSLEY     PTSUNNY   45  37  76 SE2       30.11S
LLOYDMINSTER   MOSUNNY   46  37  71 SW9       30.07R
PRINCE ALBERT  PTSUNNY   41  39  93 SW3       30.09F
REGINA         MOSUNNY   39  37  93 S3        30.16S
YORKTON        CLOUDY    43  41  93 W6        30.15R



USA.gov is the U.S. government's official web portal to all federal, state and local government web resources and services.